This is the latest recevied weather packets stored in our database for station/object HB9FHL-13. If no packets are shown the sender has not sent any weather packets the latest 10 day(s).
| Time | Temp. | Humidity | Pressure | Rain* | Wind** | Luminosity | Snow |
|---|---|---|---|---|---|---|---|
| 1788117305 | 22.22° C | - | 1018.2 hPa | 0 mm | - | - | - |
| 1788117259 | 22.22° C | - | 1018.2 hPa | 0 mm | - | - | - |
| 1788116958 | 22.78° C | - | 1015.9 hPa | 0 mm | - | - | - |
| 1788116761 | 22.78° C | - | 1015.8 hPa | 0 mm | - | - | - |
| 1788116658 | 22.78° C | - | 1015.8 hPa | 0 mm | - | - | - |
| 1788116357 | 22.22° C | - | 1018.1 hPa | 0 mm | - | - | - |
| 1788116057 | 21.67° C | - | 1014.7 hPa | 0 mm | - | - | - |
| 1788115756 | 21.67° C | - | 1015.5 hPa | 0 mm | - | - | - |
| 1788115456 | 22.22° C | - | 1019.1 hPa | 0 mm | - | - | - |
| 1788115155 | 21.67° C | - | 1017.4 hPa | 0 mm | - | - | - |
| 1788114854 | 22.78° C | - | 1015.4 hPa | 0 mm | - | - | - |
| 1788114588 | 22.22° C | - | 1016.9 hPa | 0 mm | - | - | - |
| 1788114553 | 22.22° C | - | 1016.9 hPa | 0 mm | - | - | - |
| 1788114253 | 22.22° C | - | 1018.6 hPa | 0 mm | - | - | - |
| 1788113952 | 22.22° C | - | 1014 hPa | 0 mm | - | - | - |
| 1788113652 | 22.22° C | - | 1014.9 hPa | 0 mm | - | - | - |
| 1788113351 | 22.22° C | - | 1016.4 hPa | 0 mm | - | - | - |
| 1788113087 | 21.67° C | - | 1015.9 hPa | 0 mm | - | - | - |
| 1788113051 | 21.67° C | - | 1015.9 hPa | 0 mm | - | - | - |
| 1788112798 | 22.78° C | - | 1017.4 hPa | 0 mm | - | - | - |
| 1788112750 | 22.78° C | - | 1017.4 hPa | 0 mm | - | - | - |
| 1788112450 | 23.33° C | - | 1019.2 hPa | 0 mm | - | - | - |
| 1788112149 | 23.33° C | - | 1015.6 hPa | 0 mm | - | - | - |
| 1788111849 | 23.33° C | - | 1016.1 hPa | 0 mm | - | - | - |
| 1788111550 | 23.89° C | - | 1018.8 hPa | 0 mm | - | - | - |
* Rain since midnight (hover to see other rain measurements)
** Current wind speed in m/s (hover to see current wind gust speed)